User: anonymous   Login
Location: Cincinnati Observatory Center
(39.1389°N, 84.4225°W)
Time: 01:29:26
(UTC-04:00)
Language:

JAS-1B - Orbit

View from above orbital plane
View from above orbital plane
View from above satellite
View from above satellite

Ground track
Ground track

The orbit data is extracted from the following two-line orbital elements,

1 20480U 90013C   16241.08005012 -.00000022  00000-0  27389-4 0  9995
2 20480  99.0216  63.6519 0539909 335.3804 133.0461 12.83412097244122
Epoch (UTC): 28 August 2016 01:55:16
Eccentricity: 0.0539909
inclination: 99.0216°
perigee height: 912 km
apogee height: 1744 km
right ascension of ascending node: 63.6519°
argument of perigee: 335.3804°
revolutions per day: 12.83412097
mean anomaly at epoch: 133.0461°
orbit number at epoch: 24412

The dashed part of the orbit path shows where the satellite is in the earth's shadow,  

DLR